GW5170 Weather Reports


Display with metric or nautical units.
time (UTC)temp
F
wind
direction
speed
MPH
gust
MPH
rain 1hr
in
rain 24hr
in
rain mn
in
humidity
%
barometer
mb
20260503222305 76 348 4.0 6.0 0.00 0.01 0.01 28 1005.8
20260503221803 76 280 5.0 7.0 0.00 0.01 0.01 26 1006.0
20260503221301 76 109 4.0 8.0 0.00 0.01 0.01 27 1005.9
20260503220757 76 314 11.0 13.0 0.00 0.01 0.01 27 1005.9
20260503220254 76 248 4.0 4.0 0.00 0.01 0.01 26 1005.9
20260503215751 76 308 8.0 10.0 0.00 0.01 0.01 27 1005.7
20260503215248 76 250 6.0 8.0 0.00 0.01 0.01 29 1005.7
20260503214746 76 305 8.0 11.0 0.00 0.01 0.01 29 1005.6
20260503214242 77 240 7.0 9.0 0.00 0.01 0.01 29 1005.6
20260503213740 76 280 9.0 11.0 0.00 0.01 0.01 31 1005.8
20260503213238 77 244 5.0 7.0 0.00 0.01 0.01 31 1005.9
20260503212734 76 268 6.0 10.0 0.00 0.01 0.01 32 1005.8
20260503212232 76 269 6.0 10.0 0.00 0.01 0.01 32 1005.7
20260503211729 75 290 5.0 8.0 0.00 0.01 0.01 32 1006.0
20260503211225 75 290 5.0 7.0 0.00 0.01 0.01 33 1006.0
20260503210721 75 318 6.0 7.0 0.00 0.01 0.01 34 1006.2
20260503210219 75 63 7.0 9.0 0.00 0.01 0.01 33 1006.3
20260503205714 75 250 11.0 13.0 0.00 0.01 0.01 33 1006.4
20260503205210 75 248 5.0 6.0 0.00 0.01 0.01 33 1006.4
20260503204707 74 241 6.0 7.0 0.00 0.01 0.01 34 1006.6
20260503204205 75 285 6.0 7.0 0.00 0.01 0.01 34 1006.5
20260503203701 74 228 9.0 10.0 0.00 0.01 0.01 34 1006.6
20260503203159 74 312 9.0 10.0 0.00 0.01 0.01 35 1006.8
20260503202656 74 289 4.0 7.0 0.00 0.01 0.01 36 1006.8
20260503202154 73 252 12.0 16.0 0.00 0.01 0.01 35 1006.9
20260503201652 74 239 3.0 4.0 0.00 0.01 0.01 35 1006.8
20260503201149 73 249 7.0 9.0 0.00 0.01 0.01 36 1007.2
20260503200645 73 250 2.0 3.0 0.00 0.01 0.01 35 1007.0
20260503200141 73 348 7.0 9.0 0.00 0.01 0.01 36 1007.1
20260503195638 72 263 10.0 11.0 0.00 0.01 0.01 36 1007.2
20260503195135 72 275 14.0 18.0 0.00 0.01 0.01 36 1007.4
20260503194632 72 241 6.0 10.0 0.00 0.01 0.01 36 1007.3
20260503194127 71 57 4.0 6.0 0.00 0.01 0.01 37 1007.5
20260503193625 71 349 11.0 14.0 0.00 0.01 0.01 37 1007.4
20260503193120 71 257 14.0 17.0 0.00 0.01 0.01 37 1007.5
20260503192616 71 52 14.0 23.0 0.00 0.01 0.01 37 1007.8
20260503192112 70 296 3.0 6.0 0.00 0.01 0.01 37 1007.6
20260503191609 72 282 11.0 15.0 0.00 0.01 0.01 36 1007.8
20260503191106 70 292 4.0 6.0 0.00 0.01 0.01 37 1007.8
20260503190603 70 254 12.0 16.0 0.00 0.01 0.01 38 1007.6
20260503190100 70 255 12.0 15.0 0.00 0.01 0.01 37 1007.8
20260503185556 69 194 9.0 11.0 0.00 0.01 0.01 37 1007.9
20260503185056 69 253 6.0 7.0 0.00 0.01 0.01 39 1007.9
20260503184552 69 318 5.0 6.0 0.00 0.01 0.01 39 1008.1
20260503184049 69 264 5.0 6.0 0.00 0.01 0.01 39 1008.3
20260503183545 69 302 7.0 10.0 0.00 0.01 0.01 39 1008.4
20260503183043 68 276 5.0 6.0 0.00 0.01 0.01 40 1008.3
20260503182541 68 273 7.0 8.0 0.00 0.01 0.01 39 1008.4
20260503182039 67 285 6.0 7.0 0.00 0.01 0.01 40 1008.5
20260503181535 67 44 4.0 6.0 0.00 0.01 0.01 40 1008.6
20260503181032 67 121 4.0 7.0 0.00 0.01 0.01 40 1008.5
20260503180529 67 252 8.0 9.0 0.00 0.01 0.01 40 1008.7
20260503180026 66 298 4.0 9.0 0.00 0.01 0.01 40 1008.8
20260503175524 66 314 10.0 14.0 0.00 0.01 0.01 41 1009.1
20260503175020 65 261 9.0 11.0 0.00 0.01 0.01 41 1008.8
20260503174518 66 133 3.0 4.0 0.00 0.01 0.01 41 1009.0
20260503174014 67 45 6.0 8.0 0.00 0.01 0.01 40 1009.1
20260503173509 65 237 11.0 15.0 0.00 0.01 0.01 41 1009.2
20260503173006 65 349 6.0 7.0 0.00 0.01 0.01 41 1009.3
20260503172504 64 260 13.0 17.0 0.00 0.01 0.01 42 1009.2
20260503172001 65 310 12.0 17.0 0.00 0.01 0.01 41 1009.3
20260503171457 64 229 9.0 10.0 0.00 0.01 0.01 42 1009.4
20260503170954 64 270 14.0 19.0 0.00 0.01 0.01 42 1009.5
20260503170450 63 250 13.0 16.0 0.00 0.01 0.01 42 1009.5
20260503150843 56 215 13.0 14.0 0.00 0.01 0.01 53 1010.9
20260503150339 56 214 9.0 10.0 0.00 0.01 0.01 55 1011.1
20260503140303 53 195 9.0 13.0 0.00 0.01 0.01 61 1011.1
20260503131233 49 190 4.0 6.0 0.00 0.00 0.00 70 1013.0
20260503130730 49 217 4.0 7.0 0.00 0.00 0.00 70 1013.2
20260503130227 49 209 3.0 3.0 0.00 0.00 0.00 71 1013.6
20260503120153 49 208 4.0 4.0 0.00 0.00 0.00 64 1014.2
20260503110621 48 249 3.0 3.0 0.00 0.00 0.00 68 1014.4
20260503110118 48 306 1.0 1.0 0.00 0.00 0.00 70 1014.6
20260503090508 48 257 4.0 6.0 0.00 0.00 0.00 58 1014.9
20260503081428 47 223 3.0 3.0 0.00 0.00 0.00 58 1014.9
20260503080925 47 250 3.0 4.0 0.00 0.00 0.00 58 1015.1
20260503080422 47 236 2.0 3.0 0.00 0.00 0.00 58 1015.1
20260503072858 46 309 2.0 2.0 0.00 0.00 0.00 58 1014.9
20260503072355 46 265 2.0 2.0 0.00 0.00 0.00 58 1015.0
20260503071851 46 279 2.0 2.0 0.00 0.00 0.00 58 1015.0
20260503071349 46 228 2.0 2.0 0.00 0.00 0.00 58 1015.0
20260503070844 46 274 2.0 2.0 0.00 0.00 0.00 57 1015.1
20260503070343 46 303 2.0 2.0 0.00 0.00 0.00 57 1015.1
20260503060308 47 277 1.0 2.0 0.00 0.00 0.00 56 1015.7
20260503054755 47 276 2.0 2.0 0.00 0.00 0.00 55 1015.8
20260503054251 47 227 2.0 2.0 0.00 0.00 0.00 54 1015.7
20260503053749 47 283 3.0 4.0 0.00 0.00 0.00 54 1015.7
20260503053248 47 269 4.0 4.0 0.00 0.00 0.00 54 1015.9
20260503052744 47 231 2.0 3.0 0.00 0.00 0.00 55 1015.8
20260503052241 47 213 4.0 4.0 0.00 0.00 0.00 54 1015.8
20260503051736 48 222 4.0 4.0 0.00 0.00 0.00 54 1015.8
20260503051234 48 209 3.0 3.0 0.00 0.00 0.00 54 1015.8
20260503050730 48 289 4.0 6.0 0.00 0.00 0.00 54 1015.9
20260503050226 48 225 3.0 4.0 0.00 0.00 0.00 53 1015.9
20260503045724 48 223 4.0 4.0 0.00 0.00 0.00 53 1015.8
20260503045222 48 228 2.0 3.0 0.00 0.00 0.00 53 1015.9
20260503044718 48 245 4.0 6.0 0.00 0.00 0.00 52 1016.1
20260503044216 48 258 2.0 3.0 0.00 0.00 0.00 52 1016.1
20260503043712 48 224 2.0 2.0 0.00 0.00 0.00 52 1016.1
20260503043210 48 310 2.0 3.0 0.00 0.00 0.00 51 1016.0
20260503042705 49 276 3.0 4.0 0.00 0.00 0.00 51 1016.3
20260503042202 49 243 2.0 3.0 0.00 0.00 0.00 50 1016.2
20260503041658 49 245 4.0 6.0 0.00 0.00 0.00 50 1016.1
20260503041156 49 245 5.0 7.0 0.00 0.00 0.00 49 1016.3
20260503040653 49 242 4.0 6.0 0.00 0.00 0.00 49 1016.2
20260503040151 49 251 3.0 3.0 0.00 0.00 0.00 49 1016.3
20260503035647 49 247 2.0 3.0 0.00 0.00 0.00 49 1016.5
20260503035145 49 315 2.0 3.0 0.00 0.00 0.00 49 1016.5
20260503034642 50 286 3.0 3.0 0.00 0.00 0.00 49 1016.5
20260503034139 50 229 2.0 4.0 0.00 0.00 0.00 48 1016.6
20260503033636 50 248 6.0 7.0 0.00 0.00 0.00 48 1016.6
20260503033134 50 264 3.0 3.0 0.00 0.00 0.00 48 1016.7
20260503032632 50 350 4.0 7.0 0.00 0.00 0.00 48 1016.6
20260503032131 50 209 3.0 3.0 0.00 0.00 0.00 47 1016.6
20260503031627 50 283 4.0 6.0 0.00 0.00 0.00 47 1016.7
20260503031125 50 269 3.0 3.0 0.00 0.00 0.00 47 1016.8
20260503030621 50 254 5.0 6.0 0.00 0.00 0.00 46 1017.1
20260503030118 50 225 3.0 4.0 0.00 0.00 0.00 46 1016.8
20260503025614 50 272 2.0 3.0 0.00 0.00 0.00 46 1016.7
20260503025113 50 291 2.0 3.0 0.00 0.00 0.00 46 1017.1
20260503024608 51 285 3.0 3.0 0.00 0.00 0.00 46 1017.0
20260503024106 51 293 1.0 1.0 0.00 0.00 0.00 46 1017.0
20260503023602 51 272 2.0 2.0 0.00 0.00 0.00 45 1017.2
20260503023100 51 213 2.0 3.0 0.00 0.00 0.00 45 1017.0
20260503022555 52 262 3.0 3.0 0.00 0.00 0.00 44 1017.0
20260503022050 52 272 4.0 6.0 0.00 0.00 0.00 44 1016.9
20260503021547 52 287 3.0 4.0 0.00 0.00 0.00 44 1016.9
20260503021044 53 230 2.0 3.0 0.00 0.00 0.00 43 1017.0
20260503020541 53 298 2.0 3.0 0.00 0.00 0.00 42 1017.1
20260503020038 53 280 4.0 4.0 0.00 0.00 0.00 41 1016.9
20260503015535 54 242 4.0 4.0 0.00 0.00 0.00 40 1016.9
20260503015032 55 240 3.0 4.0 0.00 0.00 0.00 39 1016.8
20260503014528 55 255 5.0 6.0 0.00 0.00 0.00 39 1016.8
20260503014026 55 271 4.0 6.0 0.00 0.00 0.00 38 1016.9
20260503013523 55 230 2.0 3.0 0.00 0.00 0.00 38 1016.9
20260503013021 56 270 2.0 2.0 0.00 0.00 0.00 37 1016.6
20260503012518 56 316 4.0 6.0 0.00 0.00 0.00 36 1016.7
20260503012014 56 233 6.0 6.0 0.00 0.00 0.00 36 1016.4
20260503011511 56 239 5.0 7.0 0.00 0.00 0.00 36 1016.7
20260503011008 56 261 5.0 7.0 0.00 0.00 0.00 36 1016.9
20260503010504 56 261 5.0 6.0 0.00 0.00 0.00 35 1016.7
20260503010002 57 252 4.0 4.0 0.00 0.00 0.00 35 1016.9
20260503005459 57 253 4.0 6.0 0.00 0.00 0.00 35 1016.8
20260503004956 57 270 4.0 4.0 0.00 0.00 0.00 35 1016.8
20260503004452 58 262 3.0 3.0 0.00 0.00 0.00 34 1016.7
20260503003950 58 260 7.0 9.0 0.00 0.00 0.00 34 1016.8
20260503003447 59 322 1.0 2.0 0.00 0.00 0.00 33 1016.9
20260503002944 59 336 3.0 4.0 0.00 0.00 0.00 32 1016.9
20260503002441 59 357 4.0 4.0 0.00 0.00 0.00 32 1016.8
20260503001937 59 261 6.0 7.0 0.00 0.00 0.00 31 1016.9
20260503001434 59 271 3.0 4.0 0.00 0.00 0.00 31 1016.8
20260503000932 59 288 5.0 7.0 0.00 0.00 0.00 32 1016.8
20260503000430 59 251 3.0 4.0 0.00 0.00 0.00 31 1016.9
20260502235926 59 317 2.0 4.0 0.00 0.00 0.00 31 1017.0
20260502235422 60 309 4.0 4.0 0.00 0.00 0.00 31 1017.0
20260502234920 60 267 4.0 6.0 0.00 0.00 0.00 30 1017.1
20260502234411 60 287 14.0 16.0 0.00 0.00 0.00 30 1016.9
20260502233908 60 337 7.0 9.0 0.00 0.00 0.00 29 1017.2
20260502233403 60 298 7.0 9.0 0.00 0.00 0.00 30 1017.2
20260502232901 60 340 3.0 3.0 0.00 0.00 0.00 30 1017.3
20260502232357 60 311 4.0 6.0 0.00 0.00 0.00 30 1017.3
20260502231854 61 235 6.0 9.0 0.00 0.00 0.00 29 1017.3
20260502231351 60 312 3.0 6.0 0.00 0.00 0.00 29 1017.4
20260502230849 61 239 4.0 6.0 0.00 0.00 0.00 28 1017.5
20260502230348 60 237 6.0 8.0 0.00 0.00 0.00 28 1017.4
20260502225844 61 306 4.0 4.0 0.00 0.00 0.00 28 1017.4
20260502225340 60 304 3.0 6.0 0.00 0.00 0.00 29 1017.5
20260502224837 61 334 7.0 8.0 0.00 0.00 0.00 29 1017.7
20260502224333 60 315 7.0 9.0 0.00 0.00 0.00 29 1017.8
20260502223831 61 294 11.0 13.0 0.00 0.00 0.00 29 1017.6
20260502223329 61 312 8.0 10.0 0.00 0.00 0.00 29 1017.7
20260502222826 61 207 4.0 7.0 0.00 0.00 0.00 28 1017.7